TURKSAT 5B (50212 NORAD) Tracking and Keplerian Element Data

This shows tracking and keplerian element data for the satellite.

Feedback or suggestion? Click here.




ElementValue
Catalog50212
NameTURKSAT 5B
Epoch Orbit138
Epoch Day140.59012847
Epoch Year2022
RAAN329.079
Inclination0.0661
Eccentricity0.0003624
Argument of Perigee30.2934
Mean Anonmoly133.2699
Mean Motion1.00270338
Decay Rate1.4E-06
L11 50212U 21126A 22140.59012847 .00000140 00000+0 00000+0 0 9990
L22 50212 0.0661 329.0790 0003624 30.2934 133.2699 1.00270338 1380

Live tracking and technical data element details for TURKSAT 5B (NORAD 50212). TURKSAT 5B can be tracked NOW for your location showing map with azimuth and elevation plus other details from your city location.

Track the satellite on the map from your city or location and see movement details for azimuth, elevation, latitude, longitude, range, height, and movement on the map or in text.







IsCatalogInMostPopularTable: catalog: 50212, numindb: 30
Update: records affected: 1



GetName: 50212 TURKSAT 5B

Hit Count: updated at: Sun, 22 May 2022 04:37:16 GMT